Location: Bremen
(53.0793°N, 8.8017°E)
Time: 23:00:49
(UTC+02:00)

Tiros 1 - Pass Details

Date: 23 April 2024
Orbit: 624 x 657 km, 48.4° (Epoch: 21 May)

Event Time Altitude Azimuth Distance (km) Brightness Sun altitude
Rises 06:42:26 0° 273° (W) 2,911 9.9 4.1°
Reaches altitude 10° 06:46:10 10° 242° (WSW) 1,995 9.1 4.7°
Maximum altitude 06:47:53 12° 220° (SW) 1,864 9.1 4.9°
Drops below altitude 10° 06:49:36 10° 198° (SSW) 1,989 9.4 5.2°
Sets 06:53:18 0° 167° (SSE) 2,891 10.5 5.7°
